Flag for U.S.A. Weather past 2 weeks in Corpus Christi, Texas, U.S.A.

Now
58 °F

Fog.


Feels Like: 57 °F
Forecast: 58 / 76 °F
Wind: 6 mph from Southwest

Location: Corpus Christi International Airport

Current Time: Dec 22, 2014 at 2:56:11 AM

Latest Report: Dec 22, 2014 at 1:51 AM


Visibility: 0 mi

Pressure: 29.82 "Hg

Humidity: 97%

Dew point: 57 °F

Location of Corpus ChristiLocation

Historic Weather in Corpus Christi — Graph

°F

Corpus Christi temperature yesterday

Maximum temperature yesterday: 61 °F (at 1:59 PM)
Minimum temperature yesterday: 53 °F (at 3:51 AM)
Average temperature yesterday: 57 °F

Past Weeks' High & Low Weather Summary

 TemperatureHumidityPressure
High79 °F (Dec 14, 1:51 PM)100% (Dec 15, 5:51 AM)30.35 "Hg (Dec 15, 5:51 AM)
Low47 °F (Dec 9, 6:51 AM)31% (Dec 9, 2:51 PM)29.82 "Hg (Dec 22, 1:51 AM)
Average64 °F81%30.12 "Hg
* Reported Dec 7 1:51 AM — Dec 22 1:51 AM, Corpus Christi, Weather by CustomWeather, © 2014

Note: Actual official high and low records may vary slightly from our data, if they occured in-between our weather recording intervals... More about our weather records

Advertising

Corpus Christi weather history for previous 24 hours

 ConditionsComfort  
Time TempWeatherWind HumidityBarometerVisibility
1:51 AM
Dec 22
58 °FFog.6 mph97%29.82 "Hg0 mi
12:59 AM57 °FFog.6 mph93%29.83 "Hg2 mi
11:51 PM
Dec 21
56 °FPassing clouds.6 mph97%29.85 "Hg7 mi
10:51 PM59 °FPassing clouds.3 mph93%29.88 "Hg8 mi
9:51 PM59 °FPassing clouds.No wind90%29.90 "Hg8 mi
8:51 PM60 °FMostly cloudy.No wind86%29.91 "Hg7 mi
7:51 PM60 °FOvercast.3 mph86%29.92 "Hg8 mi
6:51 PM58 °FPassing clouds.3 mph87%29.92 "Hg9 mi
5:51 PM60 °FPassing clouds.6 mph83%29.92 "Hg10 mi
4:51 PM60 °FBroken clouds.7 mph80%29.94 "Hg10 mi
3:51 PM61 °FMore clouds than sun.5 mph78%29.95 "Hg10 mi
2:51 PM61 °FMostly cloudy.5 mph78%29.96 "Hg10 mi
1:59 PM61 °FMostly cloudy.6 mph78%29.99 "Hg10 mi
12:51 PM59 °FMostly cloudy.8 mph81%30.02 "Hg9 mi
11:51 AM58 °FLow clouds.10 mph84%30.06 "Hg8 mi
10:51 AM57 °FFog.12 mph87%30.10 "Hg6 mi
9:51 AM56 °FFog.8 mph90%30.10 "Hg5 mi
8:51 AM54 °FFog.12 mph93%30.11 "Hg2 mi
7:59 AM54 °FFog.7 mph93%30.09 "Hg2 mi
6:51 AM54 °FFog.7 mph93%30.09 "Hg6 mi
5:51 AM54 °FLow clouds.9 mph93%30.08 "Hg7 mi
4:51 AM54 °FMostly cloudy.9 mph90%30.09 "Hg8 mi
3:51 AM53 °FPassing clouds.14 mph89%30.09 "Hg9 mi
2:51 AM54 °FOvercast.12 mph86%30.10 "Hg10 mi
Weather by CustomWeather, © 2014

See weather overviewHow to use our weather pages